Regional Weather Roundup
Issued by NWS Boston, MA

Current Version | Previous Version | Text Only | Print | Product List | Glossary Off
Versions: 1 2 3 4 5 6 7 8 9 10 11 12 13 14 15 16 17 18 19 20 21 22 23 24 25 26 27 28 29 30 31 32 33 34 35 36 37 38 39 40 41 42 43 44 45 46 47
000 ASUS41 KBOX 240010 RWRBOX REGIONAL WEATHER ROUNDUP NATIONAL WEATHER SERVICE TAUNTON MA 800 PM EDT TUE SEP 23 2014 NOTE: "FAIR" INDICATES FEW OR NO CLOUDS BELOW 12,000 FEET WITH NO SIGNIFICANT WEATHER AND/OR OBSTRUCTIONS TO VISIBILITY. THE FOLLOWING OBSERVATION LOCATIONS DO NOT REPORT PRESENT WEATHER...PROVINCETOWN... SMITHFIELD...BLOCK ISLAND...KEENE...AND OXFORD. MAZALL-240100- EASTERN MASSACHUSETTS CITY SKY/WX TMP DP RH WIND PRES REMARKS BOSTON PTCLDY 66 45 46 W6 30.34R 6HR MIN TEMP: 66; 6HR MAX TEMP: 72; BEVERLY CLEAR 58 47 66 NW5 30.34R LAWRENCE CLEAR 62 48 60 NW6 30.36R BEDFORD CLEAR 54 49 83 CALM 30.34R BLUE HILL N/A 60 44 55 W10 30.34R NORWOOD CLEAR 53 46 77 CALM 30.34R MARSHFIELD NOT AVBL PLYMOUTH PTCLDY 52 45 77 SE3 30.36R TAUNTON CLEAR 50 47 89 CALM 30.34R NEW BEDFORD CLEAR 54 48 80 CALM 30.34R $$ MAZALL-240100- CAPE COD AND THE ISLANDS CITY SKY/WX TMP DP RH WIND PRES REMARKS FALMOUTH PTCLDY 55 48 76 W5 30.35R HYANNIS CLEAR 59 46 62 W5 30.33R CHATHAM CLEAR 57 47 69 CALM 30.36R PROVINCETOWN CLEAR 57 48 72 SW9 30.35R NANTUCKET CLEAR 55 45 68 CALM 30.36R MARTHAS VNYRD CLEAR 56 47 71 W7 30.35R $$ MAZALL-240100- CENTRAL AND WESTERN MASSACHUSETTS CITY SKY/WX TMP DP RH WIND PRES REMARKS WORCESTER CLEAR 55 48 77 NW8 30.36R 6HR MIN TEMP: 54; 6HR MAX TEMP: 65; FITCHBURG CLEAR 56 48 74 CALM 30.36R ORANGE CLEAR 54 50 86 NE3 30.36R SPRINGFIELD CLEAR 55 51 84 NE5 30.34R WESTFIELD CLEAR 59 50 72 NW5 30.35R NORTH ADAMS CLOUDY 59 53 80 CALM 30.37R PITTSFIELD CLEAR 52 48 86 CALM 30.36R $$ RIZALL-240100- RHODE ISLAND CITY SKY/WX TMP DP RH WIND PRES REMARKS PROVIDENCE PTCLDY 59 46 62 SW6 30.35R 6HR MIN TEMP: 59; 6HR MAX TEMP: 69; NEWPORT CLEAR 60 48 64 CALM 30.35R BLOCK ISLAND PTCLDY 59 48 67 SW5 30.35R WESTERLY PTCLDY 56 51 84 CALM 30.36R $$ CTZALL-240100- CONNECTICUT CITY SKY/WX TMP DP RH WIND PRES REMARKS BRADLEY INTL PTCLDY 60 51 72 N3 30.34R 6HR MIN TEMP: 60; 6HR MAX TEMP: 72; HARTFORD CLEAR 61 52 72 MISG 30.34R BRIDGEPORT PTCLDY 63 50 62 CALM 30.34R DANBURY CLEAR 55 50 83 SW5 30.36R GROTON PTCLDY 59 54 83 CALM 30.35R NEW HAVEN CLEAR 60 50 69 E3 30.35R CHESTER FAIR 55 54 94 CALM 30.36R MERIDEN CLEAR 57 50 77 CALM 30.35R WILLIMANTIC CLEAR 58 50 75 CALM 30.36R OXFORD PTCLDY 55 46 71 CALM 30.36R $$ MEZ002-015-021-024-NHZ003-005-008-011-012-014-VTZ005-008-240100- NORTHERN NEW ENGLAND CITY SKY/WX TMP DP RH WIND PRES REMARKS PORTLAND ME PTCLDY 59 46 62 W3 30.33R 6HR MIN TEMP: 58; 6HR MAX TEMP: 69; BANGOR ME PTCLDY 50 43 77 CALM 30.30R CONCORD NH PTCLDY 58 48 69 N6 30.35R MANCHESTER NH PTCLDY 62 47 57 VRB5 30.34R NASHUA NH CLEAR 58 51 77 CALM 30.36R PORTSMOUTH NH PTCLDY 59 47 65 NW8 30.33R JAFFREY NH PTCLDY 52 48 86 CALM 30.37R KEENE NH CLEAR 54 45 71 CALM 30.37R BURLINGTON VT PTCLDY 58 51 78 SW3 30.35R MT. WASHINGTON FOG 34 34 100 NW48G59 N/A VSB 0 WCI 17 $$ NYZ052-076-240100- EASTERN NEW YORK CITY SKY/WX TMP DP RH WIND PRES REMARKS ALBANY PTCLDY 62 49 62 N5 30.36R 6HR MIN TEMP: 62; 6HR MAX TEMP: 70; NEW YORK CITY PTCLDY 65 52 62 S9 30.34R 6HR MIN TEMP: 65; 6HR MAX TEMP: 73; $$ ANZALL-240100- MARINE OBSERVATIONS STATION/POSITION TIME TEMP WIND PRES VSBY WAVE AIR SEA DIR/SP/G HT/PER (UTC) (F) (DEG/KT/KT) (MB) (MI) (FT/S) BOSTON BUOY 2350 63 61 240/ 4/ 4 1027.5R 2/ 9 BUZZARDS BAY 2300 240/ 11/ 12 1027.7R NANTUCKET SOUND 2350 63 67 270/ 10/ 10 1027.5R 1 MASS BAY-STELLWA 2304 62 61 170/ 6/ 8 N/A 1 7/8 1/ 3 ISLE OF SHOALS 0000 65 310/ 15/ 16 1026.6R S OF BLOCK IS 2308 67 N/A 2/ 8 $$ ......................KEY......................... SKY/WX - SKY CONDITION/PRESENT WEATHER TMP - TEMPERATURE IN FAHRENHEIT DWPT - DEWPOINT IN FAHRENHEIT RH - RELATIVE HUMIDITY IN PERCENT WIND - DIRECTION AND SPEED IN MPH PRES - MEAN SEA LEVEL PRESSURE IN INCHES OF HG WCI - WIND CHILL INDEX VSB - VISIBILITY IN MILES HX - HEAT INDEX TC - TEMPERATURE IN CELSIUS VRB - VARIABLE WIND DIRECTION N/A - NOT AVAILABLE

USA.gov is the U.S. government's official web portal to all federal, state and local government web resources and services.